This is the latest recevied weather packets stored in our database for station/object CE4JVU-10. If no packets are shown the sender has not sent any weather packets the latest 10 day(s).
| Time | Temp. | Humidity | Pressure | Rain* | Wind** | Luminosity | Snow |
|---|---|---|---|---|---|---|---|
| 1787555194 | 17.78° C | 67% | 982 hPa | - | - | - | - |
| 1787554294 | 17.78° C | 66% | 982 hPa | - | - | - | - |
| 1787553394 | 17.78° C | 66% | 981.8 hPa | - | - | - | - |
| 1787552494 | 17.78° C | 66% | 981.5 hPa | - | - | - | - |
| 1787551593 | 18.33° C | 66% | 981.3 hPa | - | - | - | - |
| 1787550693 | 18.33° C | 66% | 981 hPa | - | - | - | - |
| 1787549793 | 18.33° C | 66% | 981.2 hPa | - | - | - | - |
| 1787548893 | 18.33° C | 65% | 981.4 hPa | - | - | - | - |
| 1787547993 | 18.33° C | 64% | 981.3 hPa | - | - | - | - |
| 1787547093 | 18.33° C | 64% | 981.1 hPa | - | - | - | - |
| 1787546193 | 18.89° C | 64% | 980.8 hPa | - | - | - | - |
| 1787545293 | 18.89° C | 64% | 980.5 hPa | - | - | - | - |
| 1787544393 | 18.89° C | 63% | 980.2 hPa | - | - | - | - |
| 1787543492 | 18.89° C | 64% | 980.4 hPa | - | - | - | - |
| 1787542592 | 18.89° C | 63% | 980.3 hPa | - | - | - | - |
| 1787541692 | 18.89° C | 63% | 980.2 hPa | - | - | - | - |
| 1787540792 | 18.89° C | 63% | 980.2 hPa | - | - | - | - |
| 1787539892 | 19.44° C | 63% | 980.2 hPa | - | - | - | - |
| 1787538992 | 19.44° C | 63% | 980.3 hPa | - | - | - | - |
| 1787538091 | 19.44° C | 64% | 980.4 hPa | - | - | - | - |
| 1787537194 | 20° C | 62% | 980.4 hPa | - | - | - | - |
| 1787536293 | 20° C | 63% | 980.6 hPa | - | - | - | - |
| 1787535393 | 20° C | 60% | 980.5 hPa | - | - | - | - |
| 1787534493 | 20.56° C | 62% | 980.7 hPa | - | - | - | - |
| 1787533593 | 20.56° C | 62% | 980.7 hPa | - | - | - | - |
* Rain since midnight (hover to see other rain measurements)
** Current wind speed in m/s (hover to see current wind gust speed)